KG6SIB Weather Reports


Display with metric or nautical units.
time (UTC)temp
F
wind
direction
speed
MPH
gust
MPH
rain 1hr
in
rain 24hr
in
rain mn
in
humidity
%
barometer
mb
20260506071123 45 232 0.0 5.0 0.00 0.45 0.00 92 1017.0
20260506070623 45 232 2.0 5.0 0.00 0.45 0.00 92 1017.0
20260506070154 45 237 2.0 3.0 0.00 0.45 0.00 91 1016.9
20260506062123 45 238 0.0 3.0 0.00 0.45 0.45 91 1016.5
20260506061623 45 238 0.0 4.0 0.00 0.45 0.45 91 1016.5
20260506061122 45 238 2.0 4.0 0.00 0.45 0.45 91 1016.4
20260506060623 45 238 2.0 4.0 0.00 0.45 0.45 91 1016.6
20260506060123 46 238 1.0 4.0 0.00 0.45 0.45 91 1016.8
20260506051122 46 240 0.0 5.0 0.00 0.45 0.45 90 1016.7
20260506050622 46 243 0.0 5.0 0.00 0.45 0.45 90 1016.7
20260506050152 46 246 3.0 5.0 0.00 0.45 0.45 90 1016.7
20260506044622 46 236 1.0 6.0 0.00 0.45 0.45 89 1016.3
20260506044121 46 235 1.0 5.0 0.00 0.45 0.45 89 1016.3
20260506043622 46 242 1.0 8.0 0.00 0.45 0.45 88 1016.1
20260506042622 46 240 4.0 5.0 0.00 0.45 0.45 88 1016.1
20260506041621 46 229 0.0 7.0 0.00 0.45 0.45 88 1016.0
20260506040622 46 239 0.0 3.0 0.00 0.45 0.45 87 1015.9
20260506040152 46 238 2.0 3.0 0.00 0.45 0.45 87 1015.8
20260506035652 46 240 0.0 4.0 0.00 0.45 0.45 87 1015.8
20260506034651 47 225 0.0 6.0 0.00 0.45 0.45 87 1015.6
20260506034151 47 223 3.0 6.0 0.00 0.45 0.45 87 1015.5
20260506033651 47 242 0.0 5.0 0.00 0.45 0.45 86 1015.5
20260506033151 47 244 0.0 5.0 0.00 0.45 0.45 86 1015.4
20260506032151 47 240 1.0 6.0 0.00 0.45 0.45 86 1015.3
20260506031651 47 240 2.0 6.0 0.00 0.45 0.45 86 1015.2
20260506031151 47 240 4.0 8.0 0.00 0.45 0.45 86 1015.2
20260506025650 47 238 6.0 9.0 0.00 0.45 0.45 85 1014.8
20260506025150 47 217 4.0 9.0 0.00 0.45 0.45 85 1014.7
20260506024151 47 253 5.0 9.0 0.00 0.45 0.45 84 1014.7
20260506023650 48 242 4.0 10.0 0.00 0.45 0.45 84 1014.6
20260506023150 48 234 0.0 10.0 0.00 0.45 0.45 83 1014.5
20260506022150 48 231 3.0 10.0 0.00 0.45 0.45 83 1014.5
20260506021650 48 228 3.0 10.0 0.00 0.45 0.45 82 1014.4
20260506020650 48 240 6.0 10.0 0.00 0.45 0.45 81 1014.4
20260506015650 49 225 3.0 8.0 0.00 0.45 0.45 80 1014.3
20260506015150 49 231 4.0 11.0 0.00 0.45 0.45 80 1014.3
20260506014650 49 228 3.0 11.0 0.00 0.45 0.45 80 1014.3
20260506014149 49 229 7.0 10.0 0.00 0.45 0.45 79 1014.2
20260506013650 49 219 2.0 12.0 0.00 0.45 0.45 78 1014.2
20260506013150 49 219 6.0 12.0 0.00 0.45 0.45 78 1014.2
20260506012649 49 243 6.0 9.0 0.00 0.45 0.45 77 1014.2
20260506012150 50 221 7.0 14.0 0.00 0.45 0.45 75 1014.2
20260506011649 50 234 1.0 14.0 0.00 0.45 0.45 74 1014.1
20260506011149 51 230 6.0 13.0 0.00 0.45 0.45 74 1014.3
20260506010650 51 225 8.0 14.0 0.00 0.45 0.45 75 1014.2
20260506005649 50 236 3.0 12.0 0.00 0.45 0.45 74 1013.9
20260506005149 50 197 5.0 12.0 0.00 0.45 0.45 74 1013.9
20260506004149 51 216 8.0 13.0 0.00 0.45 0.45 71 1014.2
20260506003649 51 215 5.0 14.0 0.00 0.45 0.45 72 1014.2
20260506003149 52 226 6.0 15.0 0.00 0.45 0.45 70 1014.2
20260506002649 53 229 7.0 17.0 0.00 0.45 0.45 70 1014.4
20260506002149 53 207 2.0 17.0 0.00 0.45 0.45 69 1014.3
20260506001648 52 215 3.0 13.0 0.00 0.45 0.45 71 1013.8
20260506001148 51 247 4.0 13.0 0.00 0.45 0.45 74 1013.9
20260506000648 51 210 5.0 13.0 0.00 0.45 0.45 73 1014.1
20260506000148 52 219 10.0 15.0 0.00 0.45 0.45 72 1013.9
20260505235648 52 225 6.0 18.0 0.00 0.45 0.45 71 1014.1
20260505235148 53 251 5.0 18.0 0.00 0.45 0.45 69 1014.0
20260505234649 53 263 13.0 16.0 0.00 0.45 0.45 70 1014.1
20260505233649 53 237 10.0 16.0 0.00 0.45 0.45 71 1014.1
20260505232648 54 244 7.0 17.0 0.00 0.45 0.45 68 1014.3
20260505232148 54 230 7.0 14.0 0.00 0.45 0.45 73 1014.3
20260505231648 53 210 6.0 14.0 0.00 0.45 0.45 71 1014.1
20260505231148 53 242 10.0 15.0 0.00 0.45 0.45 68 1014.2
20260505230648 55 201 7.0 19.0 0.00 0.45 0.45 66 1014.4
20260505230148 56 203 7.0 19.0 0.00 0.45 0.45 66 1014.7
20260505225147 54 204 5.0 15.0 0.00 0.45 0.45 74 1014.4
20260505224647 53 221 2.0 15.0 0.00 0.45 0.45 71 1014.3
20260505224147 55 201 9.0 16.0 0.00 0.45 0.45 67 1014.6
20260505223647 56 217 9.0 17.0 0.00 0.45 0.45 68 1014.8
20260505223147 56 237 11.0 17.0 0.00 0.45 0.45 71 1014.9
20260505222647 55 240 9.0 16.0 0.00 0.45 0.45 72 1014.7
20260505222147 54 229 11.0 16.0 0.00 0.45 0.45 70 1014.7
20260505221647 55 190 4.0 14.0 0.00 0.45 0.45 73 1014.8
20260505220647 54 269 9.0 15.0 0.00 0.45 0.45 77 1014.9
20260505220147 54 225 4.0 15.0 0.00 0.45 0.45 77 1014.9
20260505215647 54 227 4.0 15.0 0.00 0.45 0.45 77 1014.7
20260505215147 54 242 8.0 15.0 0.00 0.45 0.45 79 1014.7
20260505214647 53 224 4.0 15.0 0.00 0.45 0.45 82 1014.8
20260505214147 53 246 7.0 17.0 0.00 0.45 0.45 79 1014.8
20260505212646 52 217 4.0 14.0 0.00 0.45 0.45 84 1014.7
20260505212147 52 240 8.0 14.0 0.00 0.45 0.45 88 1014.8
20260505211147 50 232 3.0 13.0 0.00 0.45 0.45 88 1014.5
20260505210646 50 213 7.0 15.0 0.00 0.45 0.45 91 1014.6
20260505210146 49 215 8.0 15.0 0.00 0.45 0.45 91 1014.6
20260505205646 49 214 8.0 14.0 0.00 0.45 0.45 92 1014.4
20260505205146 49 243 8.0 12.0 0.00 0.45 0.45 94 1014.3
20260505204646 49 238 5.0 12.0 0.00 0.45 0.45 94 1014.4
20260505204146 49 181 3.0 12.0 0.00 0.45 0.45 94 1014.4
20260505203646 48 226 7.0 17.0 0.00 0.45 0.45 94 1014.5
20260505203147 49 194 9.0 17.0 0.00 0.45 0.45 95 1014.4
20260505202646 49 226 3.0 17.0 0.00 0.45 0.45 95 1014.4
20260505202146 49 236 4.0 11.0 0.00 0.45 0.45 95 1014.3
20260505201646 48 234 7.0 11.0 0.00 0.45 0.45 95 1014.4
20260505201146 48 232 3.0 11.0 0.00 0.45 0.45 95 1014.5
20260505200646 47 236 5.0 11.0 0.00 0.45 0.45 95 1014.2
20260505200146 47 183 3.0 11.0 0.00 0.45 0.45 95 1014.2
20260505195646 46 229 6.0 12.0 0.00 0.45 0.45 95 1014.4
20260505195146 47 244 11.0 12.0 0.00 0.45 0.45 95 1014.5
20260505194646 47 222 2.0 4.0 0.00 0.45 0.45 95 1014.5
20260505194146 47 210 1.0 7.0 0.00 0.45 0.45 95 1014.5
20260505193646 46 231 1.0 7.0 0.01 0.45 0.45 95 1014.3
20260505192646 46 252 2.0 8.0 0.03 0.45 0.45 95 1014.6
20260505192146 46 236 3.0 9.0 0.07 0.45 0.45 95 1014.5
20260505191651 46 243 3.0 9.0 0.08 0.45 0.45 95 1014.5
20260505191145 46 242 3.0 9.0 0.08 0.45 0.45 95 1014.4
20260505185645 46 238 3.0 8.0 0.08 0.45 0.45 95 1014.5
20260505184645 45 242 4.0 12.0 0.09 0.45 0.45 95 1014.5
20260505184146 45 243 1.0 12.0 0.10 0.45 0.45 95 1014.5
20260505182645 45 205 2.0 7.0 0.07 0.42 0.42 95 1014.4
20260505182145 46 234 3.0 5.0 0.03 0.38 0.38 95 1014.3
20260505181645 45 178 1.0 6.0 0.02 0.37 0.37 95 1014.1
20260505181145 46 170 5.0 9.0 0.02 0.37 0.37 95 1014.2
20260505175645 46 223 6.0 12.0 0.03 0.37 0.37 95 1014.1
20260505173644 46 240 8.0 11.0 0.03 0.35 0.35 95 1013.8
20260505173144 46 234 5.0 11.0 0.03 0.35 0.35 95 1013.9
20260505172644 46 243 2.0 12.0 0.03 0.35 0.35 95 1013.9
20260505171644 46 230 12.0 13.0 0.04 0.35 0.35 95 1013.7
20260505171144 46 246 9.0 13.0 0.05 0.35 0.35 95 1013.7
20260505170644 46 217 7.0 13.0 0.06 0.35 0.35 95 1013.6
20260505170144 46 238 2.0 9.0 0.08 0.34 0.34 95 1013.6
20260505165644 46 228 6.0 9.0 0.09 0.34 0.34 95 1013.4
20260505165144 46 242 3.0 9.0 0.10 0.34 0.34 95 1013.4
20260505164644 46 241 6.0 11.0 0.09 0.33 0.33 95 1013.3
20260505164144 45 242 5.0 11.0 0.10 0.33 0.33 95 1013.3
20260505163644 45 249 8.0 10.0 0.09 0.32 0.32 95 1013.1
20260505163144 45 238 4.0 12.0 0.09 0.32 0.32 95 1013.2
20260505162643 45 240 8.0 12.0 0.09 0.32 0.32 94 1013.2
20260505162144 45 240 9.0 15.0 0.08 0.31 0.31 95 1013.1
20260505161643 45 225 4.0 15.0 0.08 0.31 0.31 95 1013.0
20260505161144 45 249 5.0 16.0 0.07 0.30 0.30 94 1012.9
20260505160644 46 233 0.0 16.0 0.06 0.29 0.29 94 1012.9
20260505160144 46 219 5.0 13.0 0.03 0.26 0.26 95 1012.7
20260505153144 46 252 3.0 10.0 0.00 0.23 0.23 95 1012.8
20260505152643 46 233 2.0 7.0 0.00 0.23 0.23 95 1012.8
20260505151643 46 229 2.0 7.0 0.00 0.23 0.23 95 1012.8
20260505151143 45 227 2.0 9.0 0.00 0.23 0.23 94 1012.7
20260505150643 45 250 1.0 9.0 0.01 0.23 0.23 94 1012.6
20260505150142 45 234 2.0 10.0 0.02 0.23 0.23 95 1012.6
20260505140642 45 213 7.0 11.0 0.04 0.22 0.22 94 1012.3
20260505140142 45 239 6.0 12.0 0.03 0.21 0.21 94 1012.3
20260505124641 46 227 10.0 15.0 0.07 0.18 0.18 94 1012.2
20260505124142 46 202 10.0 14.0 0.07 0.18 0.18 94 1012.3
20260505123641 46 243 6.0 14.0 0.05 0.16 0.16 94 1012.1
20260505122641 46 227 1.0 12.0 0.05 0.16 0.16 94 1012.2
20260505122141 46 242 3.0 14.0 0.05 0.16 0.16 94 1012.2
20260505121641 46 245 8.0 15.0 0.05 0.16 0.16 94 1012.1
20260505121141 46 228 8.0 15.0 0.05 0.16 0.16 94 1012.1
20260505120641 46 242 8.0 13.0 0.05 0.15 0.15 94 1012.1
20260505120141 46 231 3.0 13.0 0.04 0.14 0.14 94 1012.0
20260505115640 46 263 6.0 13.0 0.02 0.12 0.12 94 1012.1
20260505115141 46 219 10.0 13.0 0.01 0.11 0.11 94 1012.1
20260505114641 46 253 2.0 11.0 0.01 0.11 0.11 94 1012.1
20260505114140 46 223 7.0 12.0 0.01 0.11 0.11 94 1012.2
20260505113640 46 242 5.0 12.0 0.01 0.11 0.11 93 1012.2
20260505113141 46 248 7.0 12.0 0.01 0.11 0.11 94 1012.2
20260505112141 46 227 1.0 9.0 0.03 0.11 0.11 93 1012.3
20260505111640 46 239 8.0 9.0 0.03 0.11 0.11 93 1012.4
20260505111140 46 236 5.0 11.0 0.03 0.11 0.11 93 1012.5
20260505110140 46 221 5.0 15.0 0.02 0.10 0.10 93 1012.4
20260505102139 45 248 9.0 11.0 0.04 0.08 0.08 93 1012.4
20260505101639 45 245 5.0 14.0 0.05 0.08 0.08 92 1012.5
20260505101139 45 229 6.0 14.0 0.06 0.08 0.08 92 1012.5
20260505100639 45 237 9.0 12.0 0.06 0.08 0.08 92 1012.5
20260505100139 45 248 4.0 9.0 0.07 0.08 0.08 92 1012.6
20260505095639 45 238 3.0 9.0 0.06 0.07 0.07 92 1012.6
20260505095139 45 233 6.0 7.0 0.07 0.07 0.07 92 1012.7
20260505094639 45 227 2.0 6.0 0.06 0.06 0.06 92 1012.8
20260505094139 45 250 4.0 10.0 0.06 0.06 0.06 91 1012.8
20260505093639 45 251 4.0 10.0 0.06 0.06 0.06 91 1012.9
20260505093139 45 244 3.0 8.0 0.05 0.05 0.05 91 1012.9
20260505092639 45 231 0.0 0.0 0.04 0.04 0.04 91 1012.9
20260505092139 45 231 0.0 0.0 0.04 0.04 0.04 90 1013.0
20260505091639 45 231 0.0 0.0 0.03 0.03 0.03 90 1013.0
20260505091139 45 231 0.0 2.0 0.02 0.02 0.02 90 1013.0
20260505090639 45 231 0.0 2.0 0.02 0.02 0.02 90 1013.0
20260505090139 45 231 0.0 1.0 0.01 0.01 0.01 89 1013.1
20260505085639 45 231 0.0 3.0 0.01 0.01 0.01 89 1013.4
20260505085139 45 231 0.0 5.0 0.00 0.00 0.00 88 1013.3
20260505084638 45 231 1.0 7.0 0.00 0.00 0.00 88 1013.4
20260505084139 45 232 4.0 7.0 0.00 0.00 0.00 88 1013.5
20260505083639 46 269 7.0 7.0 0.00 0.00 0.00 88 1013.7
20260505083138 46 232 2.0 4.0 0.00 0.00 0.00 88 1013.7
20260505082638 46 233 3.0 5.0 0.00 0.00 0.00 88 1013.9
20260505082139 46 233 2.0 5.0 0.00 0.00 0.00 88 1014.0
20260505081139 46 237 1.0 5.0 0.00 0.00 0.00 88 1014.2
20260505080639 46 238 4.0 5.0 0.00 0.00 0.00 88 1014.2
20260505080138 46 244 4.0 5.0 0.00 0.00 0.00 88 1014.3
20260505075638 46 245 3.0 7.0 0.00 0.00 0.00 88 1014.1
20260505075138 46 245 3.0 7.0 0.00 0.00 0.00 88 1014.2
20260505074638 46 236 1.0 7.0 0.00 0.00 0.00 88 1014.1
20260505074138 46 235 3.0 7.0 0.00 0.00 0.00 88 1014.1
20260505072138 46 237 3.0 10.0 0.00 0.00 0.00 88 1014.3
20260505071638 46 244 7.0 10.0 0.00 0.00 0.00 88 1014.3
20260505071138 47 244 5.0 9.0 0.00 0.00 0.00 88 1014.6